TimeEDT,TemperatureF,Dew PointF,Humidity,Sea Level PressureIn,VisibilityMPH,Wind Direction,Wind SpeedMPH,Gust SpeedMPH,PrecipitationIn,Events,Conditions,WindDirDegrees,DateUTC
12:14 AM,33.8,28.4,81,30.18,10.0,NW,8.1,-,N/A,,Overcast,310,2013-03-27 04:14:00
12:35 AM,33.8,28.4,81,30.18,10.0,NW,6.9,-,N/A,,Overcast,310,2013-03-27 04:35:00
12:54 AM,33.6,28.4,81,30.18,10.0,NW,9.2,-,N/A,,Overcast,310,2013-03-27 04:54:00
1:14 AM,33.8,28.4,81,30.18,10.0,NW,8.1,-,N/A,,Overcast,310,2013-03-27 05:14:00
1:35 AM,33.4,28.2,81,30.18,10.0,WNW,6.9,-,N/A,,Overcast,300,2013-03-27 05:35:00
1:54 AM,33.3,28.4,82,30.19,10.0,WNW,6.9,-,N/A,,Overcast,290,2013-03-27 05:54:00
2:15 AM,33.1,28.4,83,30.19,10.0,WNW,5.8,-,N/A,,Overcast,300,2013-03-27 06:15:00
2:35 AM,33.1,28.8,84,30.19,10.0,WNW,5.8,-,N/A,,Overcast,300,2013-03-27 06:35:00
2:54 AM,33.1,28.8,84,30.19,10.0,WNW,5.8,-,N/A,,Overcast,290,2013-03-27 06:54:00
3:15 AM,32.9,28.9,85,30.19,10.0,WNW,5.8,-,N/A,,Overcast,300,2013-03-27 07:15:00
3:35 AM,32.9,28.9,85,30.19,10.0,WNW,6.9,-,N/A,,Overcast,290,2013-03-27 07:35:00
3:54 AM,32.9,28.8,85,30.19,10.0,WNW,6.9,-,N/A,,Overcast,290,2013-03-27 07:54:00
4:15 AM,32.4,28.4,85,30.19,10.0,WNW,6.9,-,N/A,,Overcast,290,2013-03-27 08:15:00
4:34 AM,32.5,28.6,85,30.19,10.0,WNW,6.9,-,N/A,,Overcast,290,2013-03-27 08:34:00
4:54 AM,32.2,28.0,85,30.19,10.0,WNW,6.9,-,N/A,,Overcast,290,2013-03-27 08:54:00
5:15 AM,32.0,28.0,85,30.19,10.0,WNW,8.1,-,N/A,,Mostly Cloudy,300,2013-03-27 09:15:00
5:34 AM,31.8,27.9,85,30.20,10.0,West,8.1,-,N/A,,Mostly Cloudy,280,2013-03-27 09:34:00
5:54 AM,31.6,27.9,86,30.20,10.0,WNW,6.9,-,N/A,,Scattered Clouds,290,2013-03-27 09:54:00
6:15 AM,30.6,27.1,87,30.20,10.0,WNW,5.8,-,N/A,,Clear,290,2013-03-27 10:15:00
6:34 AM,29.7,26.6,88,30.21,10.0,WNW,4.6,-,N/A,,Clear,300,2013-03-27 10:34:00
6:55 AM,29.5,26.6,89,30.21,10.0,WNW,5.8,-,N/A,,Scattered Clouds,290,2013-03-27 10:55:00
7:15 AM,29.1,26.4,90,30.21,10.0,West,3.5,-,N/A,,Scattered Clouds,270,2013-03-27 11:15:00
7:34 AM,29.3,26.8,90,30.22,10.0,West,3.5,-,N/A,,Scattered Clouds,260,2013-03-27 11:34:00
7:55 AM,29.5,27.0,90,30.22,10.0,West,3.5,-,N/A,,Scattered Clouds,270,2013-03-27 11:55:00
8:15 AM,30.7,28.0,90,30.22,10.0,West,3.5,-,N/A,,Scattered Clouds,280,2013-03-27 12:15:00
8:34 AM,32.2,29.8,91,30.23,10.0,WNW,4.6,-,N/A,,Clear,290,2013-03-27 12:34:00
8:55 AM,34.0,31.1,89,30.23,10.0,WNW,6.9,-,N/A,,Clear,300,2013-03-27 12:55:00
9:14 AM,35.1,31.1,85,30.24,10.0,WNW,11.5,-,N/A,,Clear,300,2013-03-27 13:14:00
9:35 AM,36.1,31.1,82,30.24,10.0,NW,9.2,-,N/A,,Clear,310,2013-03-27 13:35:00
9:55 AM,37.4,30.0,75,30.24,10.0,WNW,11.5,-,N/A,,Scattered Clouds,290,2013-03-27 13:55:00
10:14 AM,38.1,28.9,70,30.24,10.0,WNW,15.0,-,N/A,,Scattered Clouds,300,2013-03-27 14:14:00
10:35 AM,39.0,28.4,66,30.24,10.0,WNW,12.7,17.3,N/A,,Mostly Cloudy,290,2013-03-27 14:35:00
10:54 AM,39.2,27.0,62,30.24,10.0,WNW,10.4,17.3,N/A,,Mostly Cloudy,300,2013-03-27 14:54:00
11:14 AM,39.4,25.3,57,30.24,10.0,NW,11.5,-,N/A,,Mostly Cloudy,310,2013-03-27 15:14:00
11:35 AM,41.2,23.5,50,30.24,10.0,NW,13.8,23.0,N/A,,Mostly Cloudy,310,2013-03-27 15:35:00
11:54 AM,41.2,23.7,50,30.25,10.0,NW,12.7,18.4,N/A,,Mostly Cloudy,310,2013-03-27 15:54:00
12:14 PM,42.3,22.5,45,30.25,10.0,NW,17.3,21.9,N/A,,Mostly Cloudy,310,2013-03-27 16:14:00
12:35 PM,41.2,21.6,46,30.24,10.0,WNW,12.7,20.7,N/A,,Overcast,300,2013-03-27 16:35:00
12:54 PM,41.5,20.1,42,30.24,10.0,NW,18.4,26.5,N/A,,Overcast,310,2013-03-27 16:54:00
1:15 PM,42.1,18.9,39,30.24,10.0,NW,15.0,26.5,N/A,,Mostly Cloudy,320,2013-03-27 17:15:00
1:34 PM,41.4,19.8,42,30.24,10.0,WNW,12.7,-,N/A,,Mostly Cloudy,300,2013-03-27 17:34:00
1:55 PM,43.7,20.8,40,30.24,10.0,WNW,18.4,21.9,N/A,,Mostly Cloudy,300,2013-03-27 17:55:00
2:14 PM,43.5,19.9,39,30.24,10.0,West,21.9,26.5,N/A,,Mostly Cloudy,280,2013-03-27 18:14:00
2:34 PM,41.2,19.2,41,30.24,10.0,WNW,18.4,25.3,N/A,,Mostly Cloudy,290,2013-03-27 18:34:00
2:55 PM,43.2,20.1,40,30.24,10.0,NW,17.3,26.5,N/A,,Scattered Clouds,320,2013-03-27 18:55:00
3:14 PM,43.2,20.1,40,30.24,10.0,West,17.3,25.3,N/A,,Scattered Clouds,280,2013-03-27 19:14:00
3:35 PM,43.7,19.8,38,30.24,10.0,NW,18.4,25.3,N/A,,Scattered Clouds,310,2013-03-27 19:35:00
3:55 PM,43.5,19.9,39,30.23,10.0,WNW,16.1,24.2,N/A,,Scattered Clouds,300,2013-03-27 19:55:00
4:14 PM,43.5,20.1,39,30.23,10.0,WNW,15.0,25.3,N/A,,Scattered Clouds,300,2013-03-27 20:14:00
4:35 PM,43.5,20.3,40,30.22,10.0,WNW,18.4,24.2,N/A,,Scattered Clouds,290,2013-03-27 20:35:00
4:55 PM,43.0,19.6,39,30.23,10.0,NW,17.3,23.0,N/A,,Scattered Clouds,310,2013-03-27 20:55:00
5:14 PM,43.0,19.4,39,30.23,10.0,West,18.4,24.2,N/A,,Clear,280,2013-03-27 21:14:00
5:35 PM,41.9,18.5,39,30.23,10.0,WNW,17.3,21.9,N/A,,Clear,300,2013-03-27 21:35:00
5:54 PM,41.7,18.3,39,30.23,10.0,WNW,18.4,23.0,N/A,,Clear,300,2013-03-27 21:54:00
6:14 PM,41.0,18.7,41,30.24,10.0,NW,16.1,-,N/A,,Clear,310,2013-03-27 22:14:00
6:35 PM,40.3,18.1,41,30.24,10.0,NW,15.0,21.9,N/A,,Clear,310,2013-03-27 22:35:00
6:54 PM,39.9,18.0,41,30.24,10.0,WNW,15.0,23.0,N/A,,Clear,300,2013-03-27 22:54:00
7:14 PM,39.2,17.6,42,30.24,10.0,WNW,17.3,21.9,N/A,,Clear,290,2013-03-27 23:14:00
7:34 PM,38.3,17.4,43,30.25,10.0,WNW,11.5,20.7,N/A,,Clear,300,2013-03-27 23:34:00
7:54 PM,37.4,17.2,44,30.25,10.0,NW,12.7,16.1,N/A,,Clear,310,2013-03-27 23:54:00
8:15 PM,36.5,17.6,46,30.25,10.0,NW,9.2,-,N/A,,Clear,310,2013-03-28 00:15:00
8:34 PM,35.4,18.3,50,30.26,10.0,WNW,9.2,-,N/A,,Clear,300,2013-03-28 00:34:00
8:55 PM,34.7,18.5,52,30.26,10.0,WNW,8.1,-,N/A,,Clear,300,2013-03-28 00:55:00
9:14 PM,33.4,19.0,56,30.26,10.0,WNW,6.9,-,N/A,,Clear,300,2013-03-28 01:14:00
9:34 PM,31.6,19.6,61,30.27,10.0,WNW,4.6,-,N/A,,Clear,290,2013-03-28 01:34:00
9:55 PM,31.3,20.1,63,30.27,10.0,West,4.6,-,N/A,,Clear,280,2013-03-28 01:55:00
10:14 PM,31.6,19.4,61,30.27,10.0,West,4.6,-,N/A,,Clear,280,2013-03-28 02:14:00
10:35 PM,30.2,20.3,67,30.27,10.0,West,4.6,-,N/A,,Clear,280,2013-03-28 02:35:00
10:55 PM,30.6,20.3,66,30.27,10.0,West,3.5,-,N/A,,Clear,270,2013-03-28 02:55:00
11:14 PM,30.9,19.9,64,30.27,10.0,West,4.6,-,N/A,,Clear,270,2013-03-28 03:14:00
11:35 PM,30.7,20.1,65,30.27,10.0,West,5.8,-,N/A,,Clear,270,2013-03-28 03:35:00
11:55 PM,30.7,20.1,65,30.27,10.0,West,5.8,-,N/A,,Clear,270,2013-03-28 03:55:00